[[{"header":{"parameterUnit":"m.s-1","parameterCategory":1,"la1":30.2991,"la2":30.254,"lo1":-89.0895,"lo2":-89.0444,"dy":0.0017,"dx":0.0017,"nx":28,"ny":28,"refTime":"2025-11-13T03:00:00:Z","depth":0,"parameterNumber":2,"parameterNumberName":"U-component_of_WINDS"},"data":[0,0,0,0,0,0,0,0,0,0,0,0,0,0,0,0,0,0,0,0,0,0,0,0,0,0,0,0,0,0,0,0,0,0,0,0,0,0,0,0,0,0,0,0,0,0,0,0,0,0,0,0,0,0,0,0,0,0,0.821,0.8211,0,0.8286,0.8287,0.8287,0.8257,0.8256,0.8254,0.8252,0.8332,0.8336,0.834,0,0,0,0,0,0,0,0,0,0,0,0,0,0.8044,0.8048,0.821,0.8211,0.8212,0.8286,0.8287,0.8288,0.8258,0.8255,0.8253,0.8251,0.8331,0.8335,0.834,0,0,0,0,0,0,0,0,0,0,0,0,0,0.8118,0.8049,0.821,0.8206,0.8206,0.8285,0.8287,0.8288,0.8258,0.8255,0.8253,0.825,0.8329,0.8335,0.8341,0.8429,0,0,0.8358,0.836,0,0,0,0,0,0,0,0,0.8114,0.8124,0.8205,0.8206,0.8207,0.8259,0.8257,0.8335,0.8259,0.8238,0.8252,0.8249,0.831,0.8317,0.8337,0.8433,0.8436,0.8358,0.8362,0.8364,0.8366,0,0,0,0,0,0,0,0.8109,0.8121,0.824,0.8207,0.8208,0.8202,0.8209,0.8272,0.8288,0.824,0.8238,0.8247,0.831,0.8332,0.8339,0.8437,0.8358,0.8363,0.8367,0.8369,0.8614,0.8617,0,0,0,0,0,0,0.8103,0.8117,0.8238,0.8242,0.8153,0.8207,0.8215,0.8245,0.8288,0.8292,0.8249,0.8246,0.8324,0.8332,0.8342,0.8451,0.8364,0.837,0.8373,0.8611,0.8614,0.8618,0,0,0,0,0,0,0.8099,0.8114,0.8235,0.8179,0.8194,0.8213,0.8246,0.8248,0.827,0.8295,0.8298,0.8269,0.8322,0.8334,0.8408,0.8454,0.8372,0.8377,0.8607,0.8612,0.8616,0.8669,0,0,0,0,0,0,0.8095,0.8113,0.8145,0.818,0.8197,0.8299,0.8249,0.8251,0.828,0.8275,0.8314,0.8317,0.8321,0.84,0.8414,0.846,0.8382,0.8603,0.8609,0.8615,0.8664,0.8675,0.8685,0,0,0,0,0,0.8089,0.8157,0.8147,0.8162,0.8238,0.8301,0.8311,0.8313,0.8283,0.8317,0.8334,0.8316,0.8446,0.8408,0.8423,0.8472,0.86,0.8607,0.8614,0.8659,0.8673,0.8685,0,0,0,0,0,0,0.8128,0.8161,0.8151,0.8232,0.8264,0.8296,0.8339,0.8327,0.8369,0.8363,0.8364,0.8373,0.8451,0.8468,0.8425,0.8562,0.8519,0.8529,0.8548,0.8561,0.8572,0.8567,0.8386,0,0,0,0,0,0.8145,0.8193,0.822,0.8289,0.8306,0.832,0.8347,0.8346,0.838,0.8393,0.8415,0.8449,0.8498,0.853,0.8576,0.8666,0.8676,0.8707,0.8718,0.8726,0.8736,0.8789,0.8804,0.8641,0.8641,0.864,0,0,0.8183,0.8207,0.8237,0.8298,0.8322,0.8374,0.8331,0.8386,0.8425,0.8402,0.8474,0.8492,0.853,0.8614,0.8652,0.8631,0.8783,0.8735,0.8742,0.8747,0.8798,0.8813,0.8827,0.8645,0.8644,0.8644,0,0,0.8278,0.83,0.8361,0.8388,0.8426,0.8435,0.845,0.8484,0.8495,0.8568,0.8553,0.8599,0.8682,0.8712,0.8738,0.8847,0.8834,0.8862,0.8919,0.897,0.8983,0.8995,0.9038,0.9052,0.8871,0.8871,0.8872,0,0.832,0.8395,0.8395,0.8452,0.8481,0.8462,0.8526,0.8552,0.8603,0.8624,0.86,0.8707,0.8731,0.8823,0.885,0.887,0.889,0.8859,0.8981,0.8993,0.9004,0.9044,0.906,0.8875,0.8874,0.8874,0.8874,0,0.8447,0.85,0.8545,0.8596,0.863,0.869,0.8701,0.8735,0.8731,0.8744,0.882,0.8849,0.8903,0.8924,0.892,0.9017,0.9003,0.898,0.8937,0.9023,0.9061,0.9077,0.888,0.8879,0.8877,0.8877,0,0,0.8569,0.862,0.8637,0.8661,0.8703,0.8745,0.8806,0.8858,0.8889,0.8925,0.8979,0.9051,0.9031,0.9061,0.906,0.9105,0.9195,0.9077,0.9078,0.9101,0.9308,0.9327,0.9344,0.9186,0.9189,0.9191,0.9305,0,0.867,0.8775,0.8778,0.8876,0.8927,0.8911,0.8965,0.8998,0.9012,0.9058,0.9074,0.9126,0.9094,0.9112,0.9156,0.9175,0.9237,0.9166,0.9238,0.9241,0.9232,0.9364,0.9384,0.949,0.932,0.9323,0.9324,0,0.8801,0.8843,0.8946,0.8984,0.9006,0.9053,0.9104,0.9147,0.9185,0.9193,0.9227,0.9221,0.9286,0.924,0.9332,0.9284,0.9314,0.9328,0.9332,0.9341,0.9289,0.9379,0.9524,0.9541,0.9347,0.9346,0.9344,0,0.8884,0.8965,0.9039,0.906,0.9105,0.914,0.916,0.9195,0.9228,0.9272,0.9294,0.9344,0.9373,0.9414,0.9423,0.9388,0.9516,0.947,0.9527,0.9527,0.9556,0.9555,0.971,0.9571,0.957,0.957,0.957,0,0.8997,0.9062,0.9077,0.9122,0.9196,0.9199,0.9272,0.929,0.9322,0.9373,0.9361,0.941,0.9418,0.9468,0.9476,0.9553,0.9565,0.9575,0.9577,0.9578,0.9577,0.9599,0.9593,0.9574,0.9573,0.9573,0.9572,0,0.9102,0.9114,0.9194,0.9231,0.9241,0.9294,0.9327,0.9372,0.9385,0.9449,0.9465,0.9486,0.9546,0.9559,0.9629,0.9634,0.9727,0.972,0.9714,0.9714,0.9772,0.9768,0.9949,0.9975,0.9816,0.9817,0.9818,0,0.9175,0.9225,0.9268,0.9301,0.9323,0.9376,0.9409,0.9415,0.9451,0.95,0.954,0.9598,0.9645,0.9741,0.9764,0.9819,0.9815,0.9875,0.9823,0.9824,0.982,0.9819,0.9825,0.9886,0.9888,0.9889,0.989,0,0.9305,0.9309,0.9357,0.9409,0.9449,0.9489,0.9528,0.9556,0.9568,0.9609,0.9669,0.9706,0.9779,0.9838,0.9894,0.9917,0.9908,0.9906,0.9923,0.9925,0.9921,0.9928,0.9744,0.9902,0.9901,0.99,0.9899,0.9899,0.9399,0.9444,0.9481,0.9536,0.9566,0.9604,0.9649,0.9668,0.9718,0.9778,0.9779,0.9846,0.9886,0.996,0.9987,1.0041,1.0023,1.0046,1.0053,1.0059,1.0066,0.9911,1.0051,1.0051,1.005,1.005,1.005,0,0.9531,0.9555,0.9605,0.966,0.9705,0.969,0.9733,0.9772,0.9831,0.9869,0.9916,0.9988,1.0046,1.0074,1.0132,1.0171,1.0168,1.0186,1.0185,1.0192,1.0077,1.0059,1.0188,1.0188,1.0188,1.0188,1.0188,1.0188,0.9605,0.9681,0.969,0.9783,0.9807,0.9872,0.9899,0.9934,0.9965,1.0046,1.0094,1.0112,1.0147,1.0208,1.0262,1.0269,1.0293,1.0314,1.032,1.0213,1.0199,1.0186,1.0168,1.0319,1.0319,1.043,1.0431,1.0431]},{"header":{"parameterUnit":"m.s-1","parameterCategory":1,"la1":30.2991,"la2":30.254,"lo1":-89.0895,"lo2":-89.0444,"dy":0.0017,"dx":0.0017,"nx":28,"ny":28,"refTime":"2025-11-13T03:00:00:Z","depth":0,"parameterNumber":3,"parameterNumberName":"V-component_of_WINDS"},"data":[0,0,0,0,0,0,0,0,0,0,0,0,0,0,0,0,0,0,0,0,0,0,0,0,0,0,0,0,0,0,0,0,0,0,0,0,0,0,0,0,0,0,0,0,0,0,0,0,0,0,0,0,0,0,0,0,0,0,-1.1759,-1.1759,0,-1.1816,-1.1817,-1.1817,-1.1829,-1.1829,-1.1828,-1.1828,-1.1886,-1.1888,-1.189,0,0,0,0,0,0,0,0,0,0,0,0,0,-1.166,-1.1662,-1.1759,-1.1759,-1.176,-1.1816,-1.1817,-1.1817,-1.1829,-1.1829,-1.1828,-1.1828,-1.1886,-1.1888,-1.189,0,0,0,0,0,0,0,0,0,0,0,0,0,-1.1708,-1.1662,-1.1758,-1.1773,-1.1775,-1.1816,-1.1817,-1.1818,-1.1829,-1.1829,-1.1828,-1.1827,-1.1885,-1.1888,-1.1891,-1.1921,0,0,-1.19,-1.1901,0,0,0,0,0,0,0,0,-1.1706,-1.1712,-1.177,-1.1772,-1.1774,-1.1815,-1.1803,-1.1852,-1.183,-1.1809,-1.1828,-1.1827,-1.1863,-1.1868,-1.188,-1.1924,-1.1927,-1.19,-1.1902,-1.1903,-1.1904,0,0,0,0,0,0,0,-1.1702,-1.171,-1.1781,-1.1771,-1.1773,-1.1776,-1.1783,-1.1813,-1.1839,-1.181,-1.1811,-1.1818,-1.1864,-1.1877,-1.1881,-1.1928,-1.19,-1.1902,-1.1904,-1.1905,-1.2001,-1.2002,0,0,0,0,0,0,-1.1696,-1.1707,-1.1779,-1.1783,-1.1738,-1.1779,-1.1786,-1.1802,-1.1838,-1.1843,-1.1818,-1.1818,-1.1872,-1.1878,-1.1883,-1.1922,-1.1903,-1.1906,-1.1907,-1.2,-1.2001,-1.2002,0,0,0,0,0,0,-1.1694,-1.1703,-1.1777,-1.1745,-1.1755,-1.1781,-1.18,-1.1804,-1.1817,-1.1844,-1.1849,-1.1827,-1.1872,-1.1879,-1.1912,-1.1924,-1.1907,-1.191,-1.1999,-1.2,-1.2001,-1.1999,0,0,0,0,0,0,-1.1691,-1.1702,-1.1714,-1.1745,-1.1757,-1.1805,-1.18,-1.1805,-1.1822,-1.1822,-1.1854,-1.1858,-1.1872,-1.1908,-1.1915,-1.1928,-1.1912,-1.1998,-1.2,-1.2001,-1.1998,-1.2,-1.2002,0,0,0,0,0,-1.1688,-1.1711,-1.1714,-1.1723,-1.1772,-1.1805,-1.1812,-1.1827,-1.1823,-1.1835,-1.1853,-1.1857,-1.1922,-1.1911,-1.1919,-1.1933,-1.1997,-1.1999,-1.2001,-1.1998,-1.2,-1.2002,0,0,0,0,0,0,-1.168,-1.1715,-1.1719,-1.1753,-1.1776,-1.1807,-1.1823,-1.1829,-1.1854,-1.1853,-1.1871,-1.1878,-1.191,-1.1925,-1.1912,-1.1965,-1.1959,-1.1963,-1.1954,-1.1956,-1.1958,-1.1954,-1.1914,0,0,0,0,0,-1.1682,-1.1706,-1.1736,-1.1763,-1.1774,-1.1797,-1.1812,-1.1822,-1.1846,-1.1856,-1.1876,-1.19,-1.1926,-1.1942,-1.1967,-1.2001,-1.2008,-1.2015,-1.2017,-1.2018,-1.202,-1.204,-1.2043,-1.2008,-1.2008,-1.2008,0,0,-1.1686,-1.1709,-1.1723,-1.1762,-1.1781,-1.1805,-1.1805,-1.1831,-1.1849,-1.186,-1.1892,-1.1908,-1.1936,-1.1969,-1.1985,-1.1983,-1.2032,-1.202,-1.2021,-1.2023,-1.2042,-1.2045,-1.2048,-1.2009,-1.2009,-1.2008,0,0,-1.1707,-1.1727,-1.1751,-1.1771,-1.1799,-1.1814,-1.182,-1.1851,-1.1862,-1.1895,-1.1903,-1.1926,-1.197,-1.1989,-1.2004,-1.2034,-1.2039,-1.2042,-1.205,-1.2069,-1.2072,-1.2074,-1.2085,-1.2088,-1.2044,-1.2044,-1.2044,0,-1.1709,-1.1747,-1.1763,-1.1789,-1.1806,-1.1817,-1.1843,-1.186,-1.1896,-1.1907,-1.1905,-1.196,-1.198,-1.2018,-1.2025,-1.2037,-1.2045,-1.2038,-1.207,-1.2073,-1.2075,-1.2085,-1.2089,-1.2044,-1.2044,-1.2044,-1.2044,0,-1.1747,-1.1773,-1.179,-1.1824,-1.1843,-1.1869,-1.1889,-1.1907,-1.1915,-1.1931,-1.1964,-1.1988,-1.2018,-1.2028,-1.2037,-1.2068,-1.2066,-1.2066,-1.2061,-1.2079,-1.2088,-1.2092,-1.2045,-1.2044,-1.2044,-1.2044,0,0,-1.1764,-1.1808,-1.1813,-1.1829,-1.1862,-1.1883,-1.1909,-1.1939,-1.1953,-1.1978,-1.2,-1.2038,-1.2039,-1.2056,-1.2067,-1.2084,-1.2105,-1.2082,-1.2083,-1.2086,-1.2141,-1.214,-1.2145,-1.2109,-1.211,-1.2111,-1.2139,0,-1.1788,-1.1835,-1.1851,-1.189,-1.1915,-1.1926,-1.1949,-1.1972,-1.1988,-1.2011,-1.2028,-1.2054,-1.2053,-1.2064,-1.2081,-1.2099,-1.2117,-1.2098,-1.213,-1.2131,-1.2122,-1.215,-1.2149,-1.2174,-1.2143,-1.2144,-1.2144,0,-1.1823,-1.1848,-1.1889,-1.192,-1.1931,-1.1951,-1.198,-1.2002,-1.2029,-1.2039,-1.2059,-1.2069,-1.2097,-1.2091,-1.213,-1.2116,-1.2131,-1.2142,-1.2143,-1.2146,-1.2138,-1.2153,-1.2182,-1.2186,-1.215,-1.215,-1.2149,0,-1.183,-1.1874,-1.1905,-1.1918,-1.1955,-1.1969,-1.1985,-1.2011,-1.2028,-1.2054,-1.2065,-1.2093,-1.2109,-1.2131,-1.2148,-1.2142,-1.2186,-1.2181,-1.2195,-1.2194,-1.2203,-1.2202,-1.2234,-1.2213,-1.2213,-1.2213,-1.2213,0,-1.1855,-1.188,-1.1909,-1.1927,-1.1956,-1.1975,-1.2002,-1.2019,-1.2042,-1.2064,-1.2077,-1.2097,-1.212,-1.2143,-1.2157,-1.2188,-1.2195,-1.2204,-1.2207,-1.2202,-1.2201,-1.2211,-1.221,-1.2214,-1.2214,-1.2214,-1.2214,0,-1.1868,-1.1888,-1.1922,-1.1954,-1.1963,-1.1982,-1.201,-1.2029,-1.2045,-1.2073,-1.2081,-1.2107,-1.2135,-1.2155,-1.2192,-1.2202,-1.2234,-1.2238,-1.2225,-1.2227,-1.224,-1.2238,-1.228,-1.2286,-1.2261,-1.2261,-1.2261,0,-1.1882,-1.1901,-1.1936,-1.1952,-1.1968,-1.1993,-1.2011,-1.2031,-1.2049,-1.2081,-1.2096,-1.2126,-1.215,-1.2195,-1.2217,-1.2246,-1.225,-1.2262,-1.2254,-1.2249,-1.2249,-1.2248,-1.225,-1.2263,-1.2263,-1.2263,-1.2264,0,-1.1905,-1.1915,-1.194,-1.1969,-1.199,-1.2013,-1.2037,-1.2049,-1.2073,-1.2093,-1.2123,-1.2142,-1.218,-1.2209,-1.224,-1.2256,-1.2264,-1.2266,-1.2271,-1.2266,-1.2258,-1.2262,-1.2228,-1.2265,-1.2265,-1.2265,-1.2265,-1.2265,-1.1919,-1.1937,-1.1964,-1.1992,-1.2012,-1.2034,-1.2054,-1.2073,-1.2098,-1.213,-1.214,-1.2171,-1.2198,-1.224,-1.2257,-1.2282,-1.2281,-1.2288,-1.2289,-1.2291,-1.229,-1.2255,-1.2287,-1.2287,-1.2287,-1.2287,-1.2287,0,-1.1943,-1.1961,-1.1987,-1.202,-1.2042,-1.2048,-1.2075,-1.2092,-1.2119,-1.2144,-1.2168,-1.2202,-1.2231,-1.2256,-1.2285,-1.23,-1.2304,-1.2307,-1.2306,-1.231,-1.229,-1.2282,-1.2303,-1.2303,-1.2303,-1.2303,-1.2303,-1.2303,-1.1958,-1.1988,-1.2001,-1.2042,-1.206,-1.2091,-1.2105,-1.2126,-1.2146,-1.2184,-1.2208,-1.2224,-1.2248,-1.228,-1.2307,-1.2313,-1.2323,-1.2325,-1.2333,-1.2313,-1.2311,-1.2309,-1.2303,-1.2328,-1.2328,-1.2351,-1.2351,-1.2351]}]]